Wind_Speed
16 16 15 16 16 16 15 16 15 15 15 15 15 15 15 14 14 14 13 13 12 12 11 11 10 10 10 9 9 10 10 9 9 9 9 9 8 8 8 9 9 9 9
19 18 18 18 18 18 17 17 17 17 16 16 16 16 16 15 16 15 15 15 14 14 13 13 12 12 12 12 11 11 12 12 12 11 11 11 10 10 10 10 11 10 11
22 21 21 20 20 20 20 19 19 19 18 18 18 17 17 17 17 17 17 17 17 16 16 15 15 14 14 14 14 14 14 14 14 14 14 13 13 12 12 12 12 12 12
24 24 23 23 22 22 22 22 21 21 20 20 19 19 19 19 19 19 18 19 19 18 17 17 17 17 17 16 16 16 16 16 16 16 16 15 15 14 14 14 14 14 14
27 26 26 25 24 24 24 24 24 23 23 22 22 21 21 21 21 20 20 20 20 19 19 18 18 18 18 18 18 18 18 18 18 18 18 18 17 16 16 16 16 16 16
29 28 28 27 27 27 26 26 26 26 25 24 23 23 23 22 22 22 22 22 22 21 21 20 20 20 20 20 20 20 20 20 20 20 20 20 19 19 18 18 18 18 18
31 30 30 30 29 29 28 27 27 27 26 26 25 25 25 24 23 23 24 23 23 23 22 22 21 21 21 22 21 21 21 21 21 21 21 21 21 21 21 21 21 20 20
33 32 31 31 31 30 29 29 28 28 28 27 27 26 26 26 26 25 25 24 24 24 24 23 23 23 22 22 22 22 22 22 22 23 23 23 23 23 23 23 23 23 22
35 33 33 33 32 32 31 31 30 30 30 29 29 28 28 28 29 28 27 27 26 26 26 26 26 25 25 24 24 24 24 24 24 24 24 25 25 25 25 25 24 24 24
37 36 35 34 34 34 33 33 32 32 32 31 31 30 30 30 30 30 29 28 28 28 28 28 28 28 27 27 26 26 25 25 26 26 26 26 26 26 27 27 26 26 26
37 38 37 36 35 35 35 34 34 34 33 33 33 32 32 31 30 30 30 30 30 30 30 30 30 30 29 28 27 27 27 27 27 28 28 27 27 27 28 28 28 27 27
38 38 38 38 37 36 36 35 35 35 35 35 35 35 34 33 32 32 32 32 32 32 32 31 31 31 30 30 29 29 29 29 30 29 29 29 29 29 29 29 29 29 29
38 38 39 38 38 38 37 37 36 36 36 37 37 37 35 34 34 33 33 33 33 34 33 32 32 32 32 31 30 30 31 31 31 31 31 31 31 31 31 31 30 31 31
39 39 39 39 39 39 39 38 38 38 38 38 38 38 37 36 36 36 35 34 34 34 35 34 33 33 33 33 33 33 33 33 32 33 33 33 33 32 32 33 32 32 32
39 39 39 40 41 40 39 39 39 39 38 38 39 39 39 39 38 38 37 37 37 36 36 35 35 34 34 34 35 35 35 34 34 34 35 35 34 34 34 33 33 33 32
38 39 39 39 41 40 40 40 39 39 39 39 39 39 40 40 38 38 39 39 38 37 37 37 36 35 35 35 35 35 36 35 35 35 35 36 35 35 34 35 34 34 33
37 38 39 39 40 41 40 41 40 40 40 40 40 40 40 41 41 41 40 39 39 38 38 37 37 36 36 36 36 36 36 37 37 36 36 36 36 36 36 35 35 34 34
36 37 38 40 40 41 41 42 41 40 41 40 40 40 40 41 41 41 40 40 39 39 38 38 38 38 37 37 37 37 38 37 38 37 37 37 37 37 36 36 35 35 35
35 36 37 38 40 42 43 43 42 42 41 40 40 40 40 41 41 42 41 41 40 39 38 38 39 40 39 39 38 38 39 39 38 38 38 38 38 38 37 37 37 36 36
34 35 36 37 39 40 42 42 42 42 42 41 40 41 41 41 42 42 41 40 40 39 39 39 39 40 40 40 39 39 39 39 39 38 38 38 38 39 38 37 38 37 37
33 35 36 37 38 39 40 41 41 41 41 41 40 40 42 42 41 41 40 40 40 40 40 40 39 39 40 40 40 39 39 38 38 38 38 37 38 39 38 38 39 38 38
34 35 36 36 37 38 39 40 41 41 41 40 40 40 40 40 40 42 42 40 40 41 41 40 40 40 40 40 40 39 38 37 37 37 37 37 38 38 38 39 41 39 39
35 35 35 36 36 37 38 39 40 40 40 40 40 39 38 38 40 40 42 40 40 40 40 40 40 40 39 40 39 38 38 37 37 36 37 36 37 37 38 39 39 39 37
33 34 34 34 35 36 37 38 38 38 38 39 39 39 38 37 39 40 40 40 38 38 38 38 39 39 39 39 39 38 38 38 38 37 36 36 37 38 38 38 38 37 37
31 32 32 32 33 34 35 36 36 37 37 37 38 38 39 38 38 38 38 38 37 36 37 37 37 37 37 38 39 39 38 38 37 37 36 37 37 37 38 37 37 37 38
29 29 30 32 32 34 34 34 36 36 35 36 37 38 39 38 38 37 37 38 36 36 36 36 36 36 36 37 38 38 37 38 37 37 37 37 38 37 37 37 36 36 37
Wind_Direction
258 258 258 257 256 256 256 255 255 256 256 256 257 257 252 252 254 255 257 259 261 262 264 268 270 271 272 274 274 275 275 277 280 287 290 295 294 295 298 301 302 303 305
259 259 258 258 257 257 257 258 258 258 259 259 259 256 254 255 256 256 257 258 259 260 262 264 267 269 271 272 272 274 275 276 278 281 285 288 288 288 291 293 295 297 299
258 259 259 259 259 258 257 258 259 259 260 261 260 257 257 258 258 258 258 259 259 260 261 263 263 266 268 271 272 273 274 275 276 278 280 282 283 283 287 288 290 292 294
258 258 258 259 259 259 258 257 258 259 260 261 261 259 258 259 259 260 260 260 261 261 260 261 263 264 265 268 270 271 273 275 276 277 278 280 280 280 282 285 286 288 290
259 258 257 257 258 258 259 257 257 258 259 260 261 261 260 259 259 259 260 261 261 260 260 261 262 264 265 267 269 271 272 274 276 276 277 278 278 279 280 282 284 286 287
257 258 257 257 258 258 259 258 257 258 258 259 260 261 261 261 260 260 259 260 261 261 262 262 263 264 266 267 269 271 272 274 275 276 277 278 278 279 280 281 283 285 285
257 257 256 257 257 258 257 257 257 257 257 258 259 260 261 261 262 261 259 260 260 260 261 262 263 265 266 268 269 271 273 274 274 275 276 277 278 279 280 281 282 283 284
258 256 256 257 257 257 256 255 256 256 257 258 259 259 261 261 261 262 261 259 260 261 261 262 263 265 266 268 269 271 272 273 275 276 276 276 276 277 279 279 280 281 282
258 257 256 256 256 256 255 255 255 256 256 257 258 258 259 261 262 262 262 260 260 261 262 263 264 265 267 269 271 272 273 274 275 277 278 277 276 277 277 278 278 279 281
257 257 256 255 255 255 255 255 255 255 256 256 257 258 259 261 261 261 262 261 260 260 262 263 264 265 267 269 270 273 274 277 278 277 278 279 278 277 276 277 278 279 280
257 256 256 255 253 254 255 256 255 255 256 257 258 259 260 261 260 260 261 262 262 261 261 263 264 266 267 268 270 272 275 276 278 278 278 278 277 277 278 278 278 279 279
257 256 254 254 254 253 254 255 256 256 256 257 258 259 260 261 261 261 261 261 261 261 261 263 265 266 267 268 270 272 274 276 276 277 277 277 276 276 278 279 278 278 278
257 257 255 254 254 254 254 254 256 257 258 259 258 259 260 260 261 263 262 262 262 262 262 263 264 265 266 267 269 272 273 274 276 276 275 275 275 275 276 278 279 278 277
256 255 255 253 253 254 255 254 255 257 257 257 259 260 261 260 261 263 263 263 263 263 262 264 265 266 267 267 268 270 271 272 274 275 274 273 273 274 275 276 277 278 278
255 254 254 254 253 253 254 254 255 256 257 258 259 260 260 261 262 262 263 264 264 264 264 265 266 267 268 269 269 270 271 271 272 274 273 273 272 273 274 275 277 278 277
256 254 254 253 252 252 252 253 255 255 257 259 260 261 260 261 262 263 263 264 265 265 266 266 266 267 267 269 270 271 271 271 271 273 272 271 271 271 273 274 276 277 277
257 255 254 253 253 252 252 253 255 256 257 258 260 262 262 262 262 263 263 264 265 266 266 267 265 266 267 268 270 270 272 272 272 271 270 269 270 271 272 274 275 275 275
258 255 254 253 254 253 253 255 255 257 258 258 260 262 262 262 262 263 263 264 265 265 265 265 266 266 267 269 270 270 271 273 272 271 269 269 270 270 269 271 272 273 275
258 256 256 254 254 253 254 256 258 258 259 259 260 261 263 264 263 264 264 263 263 263 264 265 266 267 268 270 270 271 271 272 272 271 270 269 270 270 269 270 271 272 275
261 260 259 257 255 255 255 256 258 259 259 260 260 261 263 264 265 263 262 261 262 262 264 265 266 267 268 270 271 271 271 272 272 272 271 270 270 270 269 269 271 272 273
262 262 261 259 256 256 256 257 258 258 259 260 260 261 262 264 265 263 262 262 261 261 263 265 267 267 268 269 270 271 272 272 272 271 270 270 270 270 270 270 271 272 273
264 265 263 260 258 257 258 258 259 259 260 260 260 261 263 263 264 265 263 263 262 261 262 264 266 266 267 269 271 272 272 271 272 272 271 271 272 272 272 272 271 271 272
267 266 263 261 258 258 259 261 261 260 260 261 261 261 263 264 265 265 265 265 264 262 261 263 265 266 267 269 271 273 273 271 270 272 272 273 274 274 273 272 271 270 270
268 266 263 261 259 259 261 262 261 261 260 261 261 261 263 265 265 265 265 265 265 263 262 263 264 266 266 267 269 271 272 273 273 272 272 273 275 276 275 273 270 269 268
269 266 262 261 260 260 262 262 260 259 260 261 261 261 263 265 266 265 265 265 265 265 264 264 265 266 267 267 268 269 271 272 273 273 273 273 274 274 273 271 270 269 268
270 265 261 261 261 261 263 263 261 261 261 261 261 261 262 266 266 264 264 264 265 266 265 265 265 266 267 268 269 269 270 272 271 272 272 273 273 273 273 271 269 269 270
Height
5849 5849 5850 5850 5851 5852 5852 5853 5853 5853 5854 5854 5854 5854 5855 5855 5856 5856 5857 5857 5858 5858 5858 5859 5859 5859 5859 5859 5859 5859 5859 5858 5858 5858 5858 5858 5857 5857 5857 5856 5856 5855 5855
5845 5846 5847 5847 5848 5849 5849 5850 5850 5850 5851 5851 5852 5852 5852 5853 5853 5854 5854 5855 5855 5855 5856 5856 5856 5857 5857 5857 5857 5857 5857 5857 5856 5856 5856 5856 5856 5855 5855 5855 5854 5854 5853
5841 5842 5843 5843 5844 5845 5846 5846 5847 5847 5848 5848 5849 5849 5849 5850 5850 5851 5851 5852 5852 5853 5853 5853 5854 5854 5854 5854 5854 5854 5854 5854 5854 5854 5854 5854 5854 5853 5853 5852 5852 5851 5851
5836 5838 5838 5839 5840 5841 5842 5842 5843 5844 5844 5845 5845 5846 5846 5846 5847 5847 5848 5849 5849 5849 5850 5850 5850 5851 5851 5851 5851 5852 5852 5852 5851 5851 5851 5851 5851 5851 5850 5850 5849 5849 5848
5831 5832 5834 5835 5835 5836 5837 5838 5839 5840 5840 5841 5841 5842 5842 5843 5843 5844 5844 5845 5845 5845 5846 5846 5847 5847 5847 5848 5848 5848 5848 5848 5848 5848 5848 5848 5848 5848 5847 5847 5846 5846 5845
5825 5826 5828 5829 5830 5831 5832 5833 5834 5835 5836 5837 5837 5838 5838 5838 5839 5839 5840 5841 5841 5841 5842 5842 5843 5843 5844 5844 5844 5844 5844 5844 5844 5844 5844 5844 5844 5844 5844 5844 5843 5842 5842
5818 5820 5821 5823 5824 5825 5827 5828 5829 5830 5831 5832 5832 5833 5834 5834 5834 5835 5836 5836 5837 5837 5838 5838 5839 5839 5839 5839 5839 5840 5840 5840 5840 5840 5840 5840 5840 5840 5840 5840 5839 5838 5838
5811 5813 5815 5816 5818 5819 5820 5822 5823 5824 5825 5826 5827 5828 5828 5829 5829 5830 5831 5831 5832 5832 5833 5834 5834 5834 5835 5835 5835 5835 5835 5835 5835 5836 5835 5835 5835 5835 5835 5835 5834 5834 5833
5803 5805 5807 5809 5810 5812 5813 5815 5816 5818 5819 5820 5821 5822 5823 5823 5824 5824 5825 5826 5826 5827 5828 5828 5829 5829 5830 5830 5830 5830 5830 5830 5830 5830 5831 5830 5830 5830 5830 5830 5829 5829 5828
5795 5797 5799 5801 5803 5805 5806 5808 5809 5811 5812 5814 5815 5816 5817 5817 5817 5818 5819 5819 5820 5821 5822 5823 5823 5824 5824 5825 5825 5825 5825 5825 5825 5825 5825 5825 5825 5824 5824 5824 5824 5823 5823
5785 5788 5790 5793 5795 5797 5799 5800 5802 5803 5805 5807 5808 5809 5810 5811 5811 5812 5812 5813 5814 5815 5816 5816 5817 5817 5818 5819 5819 5819 5819 5820 5820 5819 5819 5819 5819 5818 5818 5818 5818 5818 5817
5776 5778 5781 5784 5786 5788 5790 5792 5794 5795 5797 5799 5800 5801 5803 5804 5804 5805 5806 5807 5807 5808 5809 5810 5810 5811 5811 5812 5812 5813 5813 5813 5813 5813 5813 5813 5813 5812 5812 5812 5812 5811 5811
5766 5768 5771 5774 5777 5779 5781 5783 5785 5787 5789 5790 5792 5793 5795 5796 5797 5798 5799 5799 5800 5801 5802 5802 5803 5804 5804 5805 5805 5806 5806 5806 5806 5806 5806 5806 5806 5806 5805 5805 5805 5804 5804
5755 5758 5762 5765 5767 5770 5772 5774 5776 5778 5780 5782 5783 5785 5786 5787 5788 5789 5790 5791 5792 5793 5794 5795 5795 5796 5797 5797 5798 5798 5798 5798 5799 5799 5799 5799 5798 5798 5798 5798 5798 5797 5797
5745 5748 5751 5754 5757 5760 5762 5764 5767 5769 5771 5772 5774 5775 5777 5778 5779 5780 5782 5783 5784 5784 5785 5786 5787 5788 5788 5789 5789 5790 5790 5790 5791 5791 5790 5790 5791 5790 5790 5790 5790 5790 5790
5735 5738 5741 5744 5747 5750 5753 5755 5757 5760 5761 5763 5764 5765 5767 5768 5769 5771 5772 5773 5774 5775 5776 5777 5778 5779 5779 5780 5781 5781 5781 5781 5782 5782 5782 5782 5782 5782 5782 5782 5782 5782 5782
5725 5728 5731 5734 5737 5740 5743 5745 5747 5750 5752 5753 5755 5756 5757 5758 5760 5761 5763 5764 5765 5766 5767 5768 5769 5770 5771 5771 5772 5772 5772 5772 5772 5773 5773 5773 5773 5773 5774 5774 5774 5774 5773
5717 5719 5722 5725 5728 5731 5733 5735 5738 5740 5742 5743 5745 5746 5747 5749 5750 5751 5753 5754 5755 5757 5757 5758 5760 5761 5761 5762 5762 5762 5762 5762 5762 5762 5763 5763 5763 5764 5765 5765 5765 5765 5765
5708 5710 5713 5715 5718 5721 5723 5726 5728 5731 5732 5734 5735 5736 5737 5739 5739 5740 5742 5743 5745 5747 5748 5749 5750 5751 5752 5752 5753 5752 5752 5752 5752 5752 5752 5753 5753 5754 5755 5756 5756 5756 5756
5700 5702 5704 5706 5708 5711 5714 5716 5718 5721 5723 5724 5726 5727 5728 5729 5729 5730 5732 5733 5735 5737 5738 5739 5740 5741 5741 5742 5742 5742 5742 5741 5741 5741 5741 5742 5743 5744 5745 5746 5746 5746 5746
5692 5694 5695 5697 5699 5701 5704 5706 5709 5711 5712 5714 5716 5716 5718 5719 5719 5720 5722 5723 5724 5726 5727 5728 5729 5730 5731 5731 5731 5732 5732 5731 5730 5730 5731 5732 5732 5733 5734 5735 5736 5736 5737
5684 5685 5686 5687 5689 5691 5693 5696 5698 5700 5702 5703 5705 5706 5708 5709 5709 5710 5712 5713 5714 5715 5716 5717 5718 5719 5720 5720 5721 5721 5722 5723 5721 5721 5721 5722 5722 5723 5723 5724 5725 5726 5727
5676 5676 5677 5678 5680 5682 5684 5686 5687 5689 5691 5693 5695 5696 5697 5698 5700 5700 5701 5702 5703 5704 5705 5706 5707 5708 5709 5710 5710 5710 5711 5712 5712 5713 5712 5712 5712 5712 5713 5713 5714 5715 5716
5667 5668 5668 5670 5671 5673 5674 5676 5677 5679 5680 5682 5685 5686 5687 5688 5689 5689 5691 5691 5692 5693 5694 5695 5696 5697 5698 5699 5700 5699 5700 5700 5702 5703 5703 5703 5703 5702 5701 5702 5703 5705 5706
5660 5660 5661 5662 5663 5664 5665 5666 5668 5669 5670 5672 5674 5676 5677 5678 5678 5678 5680 5681 5682 5683 5683 5684 5685 5686 5687 5688 5689 5690 5690 5690 5691 5692 5693 5694 5693 5692 5691 5692 5693 5695 5696
5652 5652 5653 5654 5654 5655 5656 5657 5659 5660 5661 5662 5664 5666 5666 5667 5668 5668 5670 5671 5672 5673 5673 5673 5674 5675 5677 5678 5679 5680 5680 5681 5681 5682 5683 5683 5683 5682 5682 5682 5684 5685 5686